User: anonymous   Login
Location: Unspecified
(0.0000°N, 0.0000°E)
Time: 21:25:22
(UTC+00:00)
Language:

Diapason D-1A - Orbit

View from above orbital plane
View from above orbital plane
View from above satellite
View from above satellite

Ground track
Ground track

The orbit data is extracted from the following two-line orbital elements,

1 02016U 66013A   18051.74366557  .00000090  00000-0  29605-4 0  9998
2 02016  34.0909 164.5694 1187490 358.2230   1.4399 12.59643969356200
Epoch (UTC): 20 February 2018 17:50:52
Eccentricity: 0.1187490
inclination: 34.0909°
perigee height: 498 km
apogee height: 2351 km
right ascension of ascending node: 164.5694°
argument of perigee: 358.2230°
revolutions per day: 12.59643969
mean anomaly at epoch: 1.4399°
orbit number at epoch: 35620

The dashed part of the orbit path shows where the satellite is in the earth's shadow,  

DLR